Home   Weather   Hanoi   Past weeks
Flag for Vietnam

Past Weather in Hanoi, Vietnam — Yesterday and Last 2 Weeks

Now
79 °F

Fog.


Feels Like: 82 °F
Forecast: 90 / 75 °F
Wind: 5 mph from Northeast

Location: Ha Noi Airport

Current Time: Oct 21, 2019 at 9:32:21 am

Latest Report: Oct 21, 2019 at 8:30 am


Visibility: 1 mi

Pressure: 29.98 "Hg

Humidity: 84%

Dew Point: 73 °F

Location of HanoiLocation

Past Weather in Hanoi — Graph

°F

Hanoi Temperature Yesterday

Maximum temperature yesterday: 88 °F (at 1:30 pm)
Minimum temperature yesterday: 72 °F (at 3:00 am)
Average temperature yesterday: 79 °F

High & Low Weather Summary for the Past Weeks

 TemperatureHumidityPressure
High91 °F (Oct 6, 2:30 pm)100% (Oct 9, 4:30 am)30.15 "Hg (Oct 9, 4:30 am)
Low70 °F (Oct 19, 12:00 am)46% (Oct 19, 1:30 pm)29.77 "Hg (Oct 11, 3:30 pm)
Average80 °F78%29.98 "Hg
* Reported Oct 6 8:00 am — Oct 21 8:30 am, Hanoi. Weather by CustomWeather, © 2019

Note: Actual official high and low records may vary slightly from our data, if they occured in-between our weather recording intervals... More about our weather records

Advertising

Hanoi Weather History for the Previous 24 Hours

Scroll right to see more
 ConditionsComfort  
Time TempWeatherWind HumidityBarometerVisibility
8:30 am
Mon, Oct 21
79 °FFog.5 mph84%29.98 "Hg1 mi
8:00 am77 °FFog.3 mph89%29.98 "Hg1 mi
7:00 am75 °FFog.3 mph94%29.95 "Hg1 mi
6:30 am75 °FFog.1 mph94%29.95 "Hg1 mi
6:00 am75 °FLight rain. Fog.5 mph94%29.95 "Hg1 mi
5:30 am75 °FLight rain. Fog.2 mph94%29.95 "Hg2 mi
5:00 am75 °FRain. Fog.3 mph94%29.92 "Hg2 mi
4:30 am75 °FLight rain. Fog.3 mph94%29.92 "Hg1 mi
4:00 am77 °FFog.5 mph89%29.92 "Hg2 mi
3:30 am77 °FFog.5 mph89%29.92 "Hg2 mi
3:00 am75 °FFog.5 mph94%29.92 "Hg2 mi
2:30 am77 °FFog.5 mph89%29.92 "Hg2 mi
2:00 am77 °FFog.6 mph89%29.95 "Hg2 mi
1:30 am77 °FFog.5 mph89%29.95 "Hg2 mi
1:00 am77 °FFog.3 mph89%29.95 "Hg3 mi
12:30 am75 °FFog.2 mph89%29.95 "Hg3 mi
12:00 am77 °FClear.3 mph83%29.98 "Hg4 mi
11:30 pm
Sun, Oct 20
77 °FClear.5 mph83%29.98 "Hg4 mi
11:00 pm79 °FClear.6 mph79%29.98 "Hg4 mi
10:30 pm79 °FClear.7 mph79%29.98 "Hg4 mi
10:00 pm79 °FClear.8 mph79%29.95 "Hg4 mi
9:30 pm79 °FClear.9 mph79%29.98 "Hg4 mi
9:00 pm79 °FClear.8 mph79%29.98 "Hg4 mi
8:30 pm79 °FClear.9 mph74%29.98 "Hg5 mi
8:00 pm81 °FClear.9 mph70%29.95 "Hg10 mi
7:30 pm81 °FClear.10 mph70%29.95 "Hg5 mi
7:00 pm82 °FPassing clouds.7 mph70%29.95 "Hg4 mi
6:30 pm82 °FPassing clouds.7 mph70%29.95 "Hg4 mi
6:00 pm82 °FPassing clouds.5 mph70%29.95 "Hg5 mi
5:30 pm84 °FPassing clouds.3 mph58%29.92 "HgN/A
5:00 pm86 °FScattered clouds.5 mph55%29.95 "HgN/A
4:30 pm86 °FScattered clouds.2 mph55%29.92 "HgN/A
4:00 pm86 °FScattered clouds.3 mph55%29.92 "HgN/A
3:30 pm86 °FScattered clouds.2 mph55%29.92 "HgN/A
3:00 pm86 °FScattered clouds.3 mph59%29.95 "HgN/A
2:30 pm86 °FScattered clouds.3 mph55%29.95 "HgN/A
2:00 pm86 °FScattered clouds.3 mph55%29.95 "HgN/A
1:30 pm88 °FScattered clouds.3 mph52%29.95 "HgN/A
1:00 pm86 °FScattered clouds.3 mph55%29.98 "HgN/A
12:30 pm84 °FScattered clouds.2 mph58%29.98 "HgN/A
12:00 pm82 °FScattered clouds.3 mph62%30.01 "HgN/A
11:30 am84 °FScattered clouds.3 mph58%30.04 "HgN/A
11:00 am84 °FScattered clouds.2 mph62%30.04 "HgN/A
10:30 am84 °FScattered clouds.3 mph62%30.07 "HgN/A
10:00 am82 °FPassing clouds.2 mph66%30.07 "HgN/A
9:30 am81 °FClear.3 mph70%30.07 "Hg6 mi
9:00 am81 °FClear.2 mph70%30.07 "Hg6 mi
Weather by CustomWeather, © 2019

See weather overview